Location: *
(32.8140°S, 174.6161°E)
Time: 20:04:24
(UTC+00:00)

ARIANE 5 R/B - Pass Details

Date: 10 December 2019
Orbit: 749 x 794 km, 98.6° (Epoch: 18 January)

Event Time Altitude Azimuth Distance (km) Brightness Sun altitude
Exits shadow 13:54:13 50° 91° (E) 993 3.1 -29.4°
Maximum altitude 13:54:36 51° 107° (ESE) 980 3.1 -29.3°
Drops below altitude 10° 13:59:36 10° 181° (S) 2,344 5.7 -28.9°
Sets 14:01:58 0° 186° (S) 3,271 6.6 -28.6°
